Content
SEND FEEDBACK

Daily
Averages
Monthly
Summary
United States of America

ST. LOUIS, MISSOURI


Home > North America > United States > Missouri
Elevation: 163 meters     Latitude: 38 45N     Longitude: 090 22W

WEATHER
 
SELECT A DAY
Number of Records: 199,662;   Date Range: 1/1/95 - 10/21/14
 
SHARE

PRINT THIS DATA

[ ← Previous Day ]
WEATHER ALMANAC - 8 APRIL, 2013
[ Next Day → ]
[ °F ]   °C
Weather ElementAverageHighLow
Temperature21.4 °C26.1 °C (1:54 pm)16.7 °C (3:54 am)
Dewpoint12.7 °C14.4 °C (12:54 pm)11.1 °C (5:54 am)
Humidity58.5 %75 % (1:54 am)45 % (1:54 pm)
Barometer1008.1 hPa1010.5 hPa (11:54 pm)1006.4 hPa (5:54 am)
Wind Speed14.3 km/h24.1 km/h (1:54 am)
Wind Gust38.9 km/h (1:54 am)
Weather ElementAverage
Visibility16.1 km
Wind DirectionSSE (164.8 °)

Weather ElementTotal
Precipitation---
Cooling Degree Days3.1 (Base 18.3)
Growing Degree Days11.4 (Base 10)
Averaged from 23 records on 8 April, 2013
WEATHER CONDITIONS BREAKOUT
WIND DIRECTION BREAKOUT
WEATHER BY HOUR - 8 APRIL, 2013
[ °F ]   °C
Local TimeTemperatureDewpointHumidityBarometerVisibilityWind DirectionWind SpeedGust SpeedPrecipitationEventsConditions
1:54 AM17.2 °C12.8 °C75 %1007.5 hPa16.1 kmSouth (190°)24.1 km/h38.9 km/hClear
2:54 AM17.2 °C12.2 °C72 %1006.8 hPa16.1 kmSouth (190°)18.5 km/h35.2 km/hClear
3:54 AM16.7 °C11.7 °C72 %1006.8 hPa16.1 kmSSW (200°)16.7 km/h27.8 km/hClear
4:54 AM16.7 °C11.7 °C72 %1007.1 hPa16.1 kmSSW (200°)11.1 km/hClear
5:54 AM17.2 °C11.1 °C67 %1006.4 hPa16.1 kmSSW (210°)16.7 km/hClear
6:54 AM16.7 °C11.1 °C70 %1007.5 hPa16.1 kmSSW (200°)13 km/hClear
7:54 AM17.8 °C11.7 °C67 %1007.5 hPa16.1 kmSSW (210°)14.8 km/hClear
8:54 AM18.3 °C12.2 °C68 %1008.1 hPa16.1 kmSW (220°)13 km/hClear
9:54 AM20.6 °C12.8 °C61 %1008.5 hPa16.1 kmVariable11.1 km/hMostly Cloudy
10:54 AM22.2 °C13.3 °C57 %1008.8 hPa16.1 kmSSW (200°)18.5 km/hScattered Clouds
11:54 AM24.4 °C13.9 °C52 %1008.5 hPa16.1 kmWest (260°)11.1 km/h25.9 km/hClear
12:54 PM25 °C14.4 °C52 %1007.8 hPa16.1 kmESE (120°)7.4 km/hPartly Cloudy
1:54 PM26.1 °C13.3 °C45 %1007.8 hPa16.1 kmSSW (210°)9.3 km/hMostly Cloudy
2:54 PM26.1 °C13.9 °C47 %1007.5 hPa16.1 kmSE (130°)16.7 km/hMostly Cloudy
3:54 PM26.1 °C13.3 °C45 %1007.1 hPa16.1 kmSouth (170°)24.1 km/h35.2 km/hMostly Cloudy
4:54 PM25.6 °C12.8 °C45 %1007.5 hPa16.1 kmSouth (170°)20.4 km/h33.3 km/hMostly Cloudy
5:54 PM24.4 °C12.2 °C46 %1007.8 hPa16.1 kmSSE (150°)18.5 km/h25.9 km/hMostly Cloudy
6:54 PM23.9 °C12.8 °C50 %1008.5 hPa16.1 kmSSE (160°)16.7 km/hMostly Cloudy
7:54 PM22.8 °C12.8 °C53 %1008.8 hPa16.1 kmSSE (150°)9.3 km/hScattered Clouds
8:54 PM22.2 °C12.8 °C55 %1009.5 hPa16.1 kmESE (120°)7.4 km/hPartly Cloudy
9:54 PM22.2 °C12.8 °C55 %1010.2 hPa16.1 kmSSE (160°)13 km/hScattered Clouds
10:54 PM21.7 °C13.3 °C59 %1010.2 hPa16.1 kmVariable9.3 km/h25.9 km/hMostly Cloudy
11:54 PM21.1 °C13.3 °C61 %1010.5 hPa16.1 kmSouth (170°)7.4 km/hOvercast
Hourly data recorded from KSUS, located 0 kilometers away from St. Louis, Missouri







STORIES FROM OUR PARTNERS